FW3304 Weather Reports


Display with metric or nautical units.
time (UTC)temp
F
wind
direction
speed
MPH
gust
MPH
rain 1hr
in
rain 24hr
in
rain mn
in
humidity
%
barometer
mb
20260508030048 48 85 0.0 1.0 0.00 0.01 0.01 86 1016.2
20260508030017 48 89 0.0 1.0 0.00 0.01 0.01 86 1017.5
20260508024547 49 85 0.0 0.0 0.00 0.01 0.01 85 1016.0
20260508023047 49 85 0.0 0.0 0.00 0.01 0.01 84 1015.8
20260508023017 49 0.0 0.0 0.00 0.01 0.01 84 1017.2
20260508021550 50 85 0.0 0.0 0.00 0.01 0.01 83 1015.6
20260508020046 51 85 0.0 0.0 0.00 0.01 0.01 81 1015.7
20260508020017 51 0.0 0.0 0.00 0.01 0.01 81 1017.1
20260508014545 53 85 0.0 0.0 0.00 0.01 0.01 80 1015.7
20260508013046 54 85 0.0 0.0 0.00 0.01 0.01 77 1015.5
20260508013037 54 0.0 1.0 0.00 0.01 0.01 77 1017.0
20260508011545 56 85 0.0 0.0 0.00 0.01 0.01 73 1015.4
20260508010044 57 85 0.0 0.0 0.00 0.01 0.01 68 1015.3
20260508010021 57 88 0.0 3.0 0.00 0.01 0.01 68 1016.9
20260508004545 59 85 0.0 0.0 0.00 0.01 0.01 65 1015.2
20260508003043 61 82 0.0 2.0 0.00 0.01 0.01 59 1015.0
20260508003037 61 63 0.0 4.0 0.00 0.01 0.01 59 1016.4
20260508001542 62 82 0.0 3.0 0.00 0.01 0.01 56 1015.0
20260508000044 64 33 1.0 4.0 0.00 0.01 0.01 52 1014.8
20260508000017 64 3 0.0 4.0 0.00 0.01 0.01 52 1016.2
20260507234543 65 323 0.0 2.0 0.00 0.01 0.01 52 1014.7
20260507233041 65 314 0.0 3.0 0.00 0.01 0.01 50 1014.7
20260507233016 65 323 0.0 8.0 0.00 0.01 0.01 49 1016.3
20260507231546 65 343 0.0 4.0 0.00 0.01 0.01 47 1014.7
20260507230039 64 340 2.0 5.0 0.00 0.04 0.01 50 1014.8
20260507230016 64 34 2.0 9.0 0.00 0.01 0.01 50 1016.2
20260507224538 65 357 2.0 6.0 0.00 0.04 0.01 47 1014.8
20260507223036 65 349 2.0 10.0 0.00 0.03 0.01 45 1016.3
20260507221535 65 27 3.0 7.0 0.00 0.04 0.01 49 1015.0
20260507220035 64 33 2.0 6.0 0.00 0.06 0.01 48 1015.0
20260507220017 64 55 3.0 11.0 0.00 0.05 0.01 48 1016.6
20260507214538 65 60 6.0 9.0 0.00 0.06 0.01 46 1014.9
20260507213032 65 50 3.0 7.0 0.00 0.06 0.01 47 1014.8
20260507213022 65 17 3.0 11.0 0.00 0.05 0.01 47 1016.3
20260507211531 64 46 5.0 10.0 0.00 0.06 0.01 49 1014.8
20260507210046 65 13 1.0 9.0 0.00 0.07 0.01 46 1015.0
20260507210016 65 305 2.0 10.0 0.00 0.06 0.01 46 1016.5
20260507204526 64 203 0.0 5.0 0.00 0.07 0.01 48 1015.0
20260507203026 64 240 4.0 7.0 0.00 0.07 0.01 49 1015.1
20260507203016 64 297 3.0 13.0 0.00 0.06 0.01 49 1016.7
20260507201525 64 340 3.0 9.0 0.00 0.07 0.01 50 1015.3
20260507200027 63 1 3.0 7.0 0.00 0.09 0.01 51 1015.3
20260507200016 63 16 4.0 16.0 0.00 0.08 0.01 51 1017.0
20260507194526 63 31 8.0 11.0 0.00 0.09 0.01 52 1015.4
20260507193023 64 328 1.0 8.0 0.00 0.09 0.01 53 1015.5
20260507193016 64 334 4.0 16.0 0.00 0.09 0.01 53 1017.2
20260507191521 64 348 5.0 9.0 0.00 0.09 0.01 53 1015.6
20260507190036 63 334 3.0 13.0 0.00 0.09 0.01 55 1017.2
20260507190017 63 359 3.0 9.0 0.00 0.09 0.01 55 1015.7
20260507184518 62 113 1.0 7.0 0.00 0.09 0.01 53 1015.8
20260507183016 63 6 5.0 14.0 0.00 0.09 0.01 52 1017.5
20260507181514 62 54 6.0 12.0 0.00 0.09 0.01 53 1016.0
20260507180040 62 344 4.0 14.0 0.00 0.09 0.01 55 1017.5
20260507180014 62 360 4.0 9.0 0.00 0.09 0.01 55 1016.1
20260507174513 62 359 5.0 9.0 0.00 0.09 0.01 51 1016.3
20260507173016 61 326 4.0 12.0 0.00 0.09 0.01 55 1018.0
20260507173008 61 290 5.0 9.0 0.00 0.09 0.01 51 1016.5
20260507171506 61 326 2.0 9.0 0.00 0.09 0.01 54 1016.7
20260507170016 61 13 3.0 12.0 0.00 0.09 0.01 58 1018.2
20260507170005 61 306 4.0 11.0 0.00 0.09 0.01 58 1016.7
20260507164503 61 343 5.0 8.0 0.00 0.09 0.01 56 1016.9
20260507163107 60 358 3.0 9.0 0.00 0.09 0.01 57 1017.1
20260507163016 60 16 4.0 12.0 0.00 0.09 0.01 57 1018.7
20260507161559 60 22 4.0 9.0 0.00 0.09 0.01 55 1017.3
20260507160056 60 63 3.0 7.0 0.00 0.09 0.01 59 1017.3
20260507160016 59 3 3.0 10.0 0.00 0.09 0.01 62 1018.8
20260507154559 60 27 3.0 8.0 0.00 0.09 0.01 63 1017.2
20260507153049 58 60 1.0 7.0 0.00 0.09 0.01 68 1017.2
20260507153016 58 54 3.0 10.0 0.00 0.09 0.01 68 1018.6
20260507151547 58 46 3.0 7.0 0.00 0.09 0.01 68 1017.1
20260507150044 57 20 3.0 6.0 0.00 0.09 0.01 70 1017.2
20260507150016 57 47 3.0 9.0 0.00 0.09 0.01 70 1018.6
20260507144541 56 39 0.0 7.0 0.00 0.09 0.01 75 1017.1
20260507143040 56 51 3.0 9.0 0.00 0.09 0.01 74 1018.7
20260507141535 55 34 3.0 6.0 0.00 0.09 0.01 79 1017.3
20260507140032 54 44 4.0 8.0 0.00 0.09 0.01 78 1017.2
20260507140015 54 35 3.0 9.0 0.00 0.09 0.01 81 1018.5
20260507134531 53 360 3.0 8.0 0.00 0.09 0.01 83 1017.2
20260507133026 52 53 3.0 8.0 0.00 0.09 0.01 83 1017.1
20260507133015 52 33 3.0 9.0 0.00 0.09 0.01 83 1018.5
20260507131524 52 345 4.0 8.0 0.00 0.09 0.01 86 1016.9
20260507130030 51 1 2.0 4.0 0.00 0.09 0.01 90 1017.0
20260507130015 51 21 1.0 9.0 0.00 0.09 0.01 90 1018.4
20260507124520 50 359 1.0 4.0 0.00 0.09 0.01 92 1016.8
20260507123015 49 18 0.0 5.0 0.00 0.09 0.01 96 1018.0
20260507123011 49 18 1.0 5.0 0.00 0.09 0.01 96 1016.6
20260507121508 48 8 1.0 4.0 0.00 0.09 0.01 97 1016.4
20260507120056 47 24 0.0 3.0 0.00 0.09 0.01 97 1017.7
20260507120006 47 12 0.0 3.0 0.00 0.09 0.01 97 1016.4
20260507114502 46 18 0.0 3.0 0.00 0.09 0.01 97 1016.3
20260507113103 45 21 0.0 2.0 0.00 0.09 0.01 97 1016.2
20260507113016 45 27 0.0 3.0 0.00 0.09 0.01 97 1017.3
20260507111559 45 21 0.0 2.0 0.00 0.09 0.01 97 1016.2
20260507110057 45 21 0.0 3.0 0.00 0.09 0.01 97 1016.2
20260507110020 45 27 0.0 3.0 0.00 0.09 0.01 97 1017.3
20260507104555 45 21 0.0 2.0 0.00 0.09 0.01 97 1016.1
20260507103054 45 21 0.0 2.0 0.01 0.09 0.01 97 1016.0
20260507103015 45 27 0.0 2.0 0.01 0.09 0.01 97 1017.2
20260507101556 45 21 0.0 2.0 0.01 0.09 0.01 97 1015.8
20260507100054 45 21 0.0 1.0 0.01 0.11 0.01 97 1016.0
20260507100015 45 28 0.0 1.0 0.01 0.09 0.01 97 1017.1
20260507094551 45 21 0.0 0.0 0.01 0.11 0.01 97 1015.9
20260507093053 46 21 0.0 0.0 0.00 0.10 0.00 97 1015.6
20260507093035 46 0.0 0.0 0.00 0.10 0.00 97 1016.9
20260507091547 46 21 0.0 0.0 0.00 0.10 0.00 97 1015.4
20260507090045 46 21 0.0 0.0 0.00 0.10 0.00 97 1015.2
20260507090015 46 0.0 2.0 0.00 0.10 0.00 97 1016.3
20260507084546 47 21 0.0 0.0 0.00 0.10 0.00 97 1015.3
20260507083043 47 21 0.0 1.0 0.00 0.10 0.00 97 1015.2
20260507083015 47 27 0.0 2.0 0.00 0.10 0.00 97 1016.3
20260507081541 47 21 0.0 2.0 0.00 0.10 0.00 97 1015.1
20260507080041 47 21 0.0 0.0 0.00 0.18 0.00 97 1015.2
20260507080017 47 0.0 0.0 0.00 0.10 0.00 97 1016.4
20260507074538 48 21 0.0 0.0 0.00 0.18 0.00 97 1015.2
20260507073042 48 0.0 0.0 0.00 0.12 0.00 97 1016.5
20260507073038 48 21 0.0 0.0 0.00 0.18 0.00 97 1015.2
20260507071559 48 21 0.0 0.0 0.00 0.18 0.00 97 1015.1
20260507070037 48 0.0 3.0 0.00 0.18 0.00 97 1016.5
20260507064536 48 21 0.0 0.0 0.00 0.24 0.00 97 1015.1
20260507063042 48 21 0.0 0.0 0.00 0.24 0.00 97 1015.3
20260507063017 48 27 0.0 3.0 0.00 0.23 0.00 97 1016.8
20260507061533 48 21 1.0 3.0 0.00 0.24 0.00 97 1015.3
20260507060035 48 21 0.0 0.0 0.00 0.32 0.00 97 1015.6
20260507060017 48 0.0 0.0 0.00 0.24 0.00 97 1016.9
20260507054526 48 21 0.0 0.0 0.00 0.32 0.00 97 1015.4
20260507053035 48 21 0.0 0.0 0.00 0.32 0.00 97 1015.4
20260507053017 48 0.0 2.0 0.00 0.26 0.00 97 1016.8
20260507051531 48 21 0.0 0.0 0.00 0.32 0.00 96 1015.3
20260507050029 48 21 0.0 0.0 0.00 0.55 0.32 96 1015.4
20260507050017 48 27 0.0 2.0 0.00 0.34 0.34 96 1016.6
20260507044522 48 21 0.0 2.0 0.00 0.55 0.32 96 1015.5
20260507043025 49 21 0.0 1.0 0.00 0.55 0.32 96 1015.2
20260507043017 49 28 0.0 1.0 0.00 0.47 0.34 96 1016.5
20260507041523 49 21 0.0 0.0 0.00 0.55 0.32 96 1015.5
20260507040022 49 21 0.0 0.0 0.00 0.55 0.32 96 1015.5
20260507034530 50 21 0.0 0.0 0.00 0.55 0.32 96 1015.7
20260507033032 50 21 0.0 2.0 0.00 0.55 0.32 96 1015.2
20260507033016 50 28 0.0 3.0 0.00 0.55 0.34 96 1016.5
20260507031516 50 21 0.0 0.0 0.00 0.55 0.32 95 1014.8